sat.trackr.live / text

‹ back to catalog

STARLINK-31592

NORAD 59467 · 2024-068N

PAYLOAD ACTIVE UNKNOWN

§ Identity

Operator
Country
US
Launch date
2024-04-10
Launch site
AFETR
Launch vehicle
Mass (kg)
RCS (m²)

Purposes: comms

External: N2YO · Heavens-Above · Gunter

§ Orbital elements

Epoch: 2026-09-21T08:26:42.134784Z

Period
94.27 min
Inclination
43.0042°
Eccentricity
0.0001497
Mean motion
15.27589788 rev/d
Perigee alt
482.0 km
Apogee alt
484.0 km
Semi-major
6,861.2 km
B*
-2.4801e-5
RAAN
9.7863°
Arg perigee
274.3935°
Mean anomaly
85.6746°
Rev number
13,844

§ Raw data

STARLINK-315921 59467U 24068N   26264.35187656 -.00000945  00000+0 -24801-4 0  99902 59467  43.0042   9.7863 0001497 274.3935  85.6746 15.27589788138449

JSON: /api/v1/satellites/59467 · /tle

For live sub-satellite position, see the globe view (requires WebGL).

§ Visibility from observer

Set your observer location to see the next 7 days of passes ≥ 10°. The values pass through the URL so the page stays shareable.

No JS? Fill the form by hand. The geolocation button needs JavaScript.